LEMUR-2-BRIANDAVIE

Last updated on Wed Feb 14 2018 16:20:55 GMT+0000 (Coordinated Universal Time)

1 43047U 17071L 18044.95161207 .00003127 00000-0 91806-4 0 9993 2 43047 51.6393 281.4232 0003279 193.0227 167.0673 15.38304990 10647
UTC large
Height (km)
Speed (km/s)
/
Latitude / Longitude
Inclination (degrees)
Orbital Period (minutes)
Azimuth
Elevation
Range (km)
Doppler Factor

Next 0 passes for location: London (51.5072 / 0.1276)

Sorry there are no passes over London.